{"data":{"norad_id":43641,"epoch":"2026-09-20T04:34:54.858144Z","epoch_age_seconds":44826,"freshness":"FRESH","line1":"1 43641U 18076A   26263.19091271 -.00000323  00000+0 -34023-4 0  9994","line2":"2 43641  97.8898  88.5760 0001434  82.8051 277.3325 14.82145687430179","mean_motion":14.82145687,"eccentricity":0.0001434,"inclination_deg":97.8898,"raan_deg":88.576,"arg_perigee_deg":82.8051,"mean_anomaly_deg":277.3325,"bstar":-3.4023e-5,"rev_number":43017,"period_min":97.156441005114,"perigee_km":621.55551596794,"apogee_km":623.5633157,"semimajor_km":7000.696415834,"source":"CELESTRAK","updated_at":"2026-09-20T09:00:14.363982Z"}}